Regional Weather Roundup
Issued by NWS

Home | Current Version | Previous Version | Graphics & Text | Print | Product List | Glossary On
Versions: 1 2 3 4 5 6 7 8 9 10 11 12 13 14 15 16 17 18 19 20 21 22 23 24 25 26 27 28 29 30 31 32 33 34 35 36 37 38 39 40 41 42 43 44 45 46 47 48 49 50
539
ASUS45 KPSR 251210
RWRAZ

ARIZONA HOURLY REGIONAL WEATHER ROUNDUP
NATIONAL WEATHER SERVICE PHOENIX AZ
500 AM MST WED MAY 25 2016

NOTE: FAIR INDICATES FEW OR NO CLOUDS BELOW 12,000 FEET WITH NO
SIGNIFICANT WEATHER AND/OR OBSTRUCTIONS TO VISIBILITY.

AZZ001>003-036-251300-
NORTHWEST ARIZONA

CITY           SKY/WX    TMP DP  RH WIND       PRES   REMARKS
BULLHEAD CITY  CLEAR     64  30  27 CALM      29.91S
KINGMAN        CLEAR     46  15  28 SE7       29.97S
6HR MIN TEMP:  45; 6HR MAX TEMP:  61;

$$

AZZ004>008-015-016-018-251300-
NORTH CENTRAL ARIZONA

CITY           SKY/WX    TMP DP  RH WIND       PRES   REMARKS
GRAND CANYON   CLEAR     26  15  63 CALM      30.12R
6HR MIN TEMP:  25; 6HR MAX TEMP:  44;

WILLIAMS       CLEAR     39  14  35 CALM      30.17S
PRESCOTT       CLEAR     42  20  41 S9        30.06S
6HR MIN TEMP:  41; 6HR MAX TEMP:  56;

FLAGSTAFF      CLEAR     35  19  52 CALM      30.11S
6HR MIN TEMP:  35; 6HR MAX TEMP:  48;

PAYSON         CLEAR     45  25  45 CALM      30.09F
PAGE           CLEAR     53  23  31 CALM      30.01R
6HR MIN TEMP:  53; 6HR MAX TEMP:  64;

$$

AZZ009>014-017-251300-
NORTHEAST ARIZONA

CITY           SKY/WX    TMP DP  RH WIND       PRES   REMARKS
WINSLOW        CLEAR     45  22  40 SE7       30.07S
6HR MIN TEMP:  42; 6HR MAX TEMP:  55;

SAINT JOHNS    CLEAR     39  22  50 S5        30.10S
6HR MIN TEMP:  38; 6HR MAX TEMP:  57;

WINDOW ROCK    CLEAR     36  19  50 CALM      30.15S
6HR MIN TEMP:  35; 6HR MAX TEMP:  53;

SHOW LOW       CLEAR     45  19  36 S12       30.13S
$$

AZZ023-251300-
GREATER PHOENIX AREA

CITY           SKY/WX    TMP DP  RH WIND       PRES   REMARKS
PHOENIX        CLEAR     67  33  28 E5        29.91R
6HR MIN TEMP:  66; 6HR MAX TEMP:  75;

BUCKEYE        CLEAR     59  23  25 NE7       29.93S
LUKE AFB       CLEAR     60  29  31 NW7       29.91R
6HR MIN TEMP:  60; 6HR MAX TEMP:  74;

DEER VALLEY    CLEAR     60  20  21 CALM      29.92S
6HR MIN TEMP:  59; 6HR MAX TEMP:  71;

SCOTTSDALE     CLEAR     61  33  35 CALM      29.94R
6HR MIN TEMP:  61; 6HR MAX TEMP:  76;

MESA-GATEWAY   CLEAR     59  27  29 SE5       29.94R
$$

AZZ027-028-251300-
SOUTHWEST MARICOPA COUNTY AND PINAL COUNTY

CITY           SKY/WX    TMP DP  RH WIND       PRES   REMARKS
CASA GRANDE    CLEAR     57  25  28 CALM      29.94S
6HR MIN TEMP:  57; 6HR MAX TEMP:  72;

GILA BEND      FAIR      62  23  22 SE6       29.91S
6HR MIN TEMP:  61; 6HR MAX TEMP:  70;

$$

AZZ503-504-507>509-251300-
SOUTHEAST ARIZONA

CITY           SKY/WX    TMP DP  RH WIND       PRES   REMARKS
TUCSON         CLEAR     60  31  33 S6        30.01S
6HR MIN TEMP:  60; 6HR MAX TEMP:  72;

DAVIS-MONTHAN  CLEAR     59  28  30 S6        29.99S
6HR MIN TEMP:  59; 6HR MAX TEMP:  71;

NOGALES        CLEAR     52  31  44 CALM      30.05S
6HR MIN TEMP:  50; 6HR MAX TEMP:  64;

SIERRA VISTA   CLEAR     61  33  35 S9        30.09S
6HR MIN TEMP:  56; 6HR MAX TEMP:  67;

DOUGLAS        CLEAR     53  17  24 E6        30.07S
6HR MIN TEMP:  51; 6HR MAX TEMP:  66;

SAFFORD        CLEAR     57  22  25 SE6       30.00R
6HR MIN TEMP:  57; 6HR MAX TEMP:  71;

$$

AZZ020-021-025-026-031-251300-
SOUTHWEST ARIZONA

CITY           SKY/WX    TMP DP  RH WIND       PRES   REMARKS
YUMA           CLEAR     63  43  48 NW8       29.90
6HR MIN TEMP:  63; 6HR MAX TEMP:  70;

$$

CAZ031-033-041-043-047-048-061-251300-
SOUTHERN CALIFORNIA

CITY           SKY/WX    TMP DP  RH WIND       PRES   REMARKS
DOWNTOWN L.A.  PTCLDY    57  52  83 CALM      30.03S
6HR MIN TEMP:  57; 6HR MAX TEMP:  62;

L.A. AIRPORT   PTCLDY    57  50  77 N3        30.04S
6HR MIN TEMP:  57; 6HR MAX TEMP:  60;

SAN DIEGO      PTCLDY    62  51  67 CALM      30.05F
6HR MIN TEMP:  62; 6HR MAX TEMP:  64; 6HR PCP: TRACE;

BURBANK        CLOUDY    55  49  80 CALM      30.03S
6HR MIN TEMP:  55; 6HR MAX TEMP:  57;

ONTARIO        MOCLDY    55  50  83 W6        30.03S
6HR MIN TEMP:  54; 6HR MAX TEMP:  58;

RIVERSIDE      CLOUDY    56  49  77 VRB3      30.04R
6HR MIN TEMP:  56; 6HR MAX TEMP:  58;

PALM SPRINGS     N/A    N/A N/A N/A MISG      29.93R
EL CENTRO NAS  CLEAR     58  34  40 W7        29.93R
6HR MIN TEMP:  58; 6HR MAX TEMP:  67;

IMPERIAL       CLEAR     58  38  47 W8        29.91R
6HR MIN TEMP:  57; 6HR MAX TEMP:  67;

BLYTHE         CLEAR     57  43  59 E3        29.89F
6HR MIN TEMP:  57; 6HR MAX TEMP:  70;

NEEDLES        CLEAR     66  36  32 CALM      29.88S
6HR MIN TEMP:  66; 6HR MAX TEMP:  76;

$$

NVZ020-UTZ003-251300-
SOUTHERN NEVADA-UTAH

CITY           SKY/WX    TMP DP  RH WIND       PRES   REMARKS
LAS VEGAS      CLEAR     62  36  37 SW3       29.88R
6HR MIN TEMP:  62; 6HR MAX TEMP:  70;

SALT LAKE CITY PTCLDY    53  39  59 S7        29.97S
6HR MIN TEMP:  51; 6HR MAX TEMP:  57;

$$

NMZ009-TXZ055-251300-
NEW MEXICO-WEST TEXAS

CITY           SKY/WX    TMP DP  RH WIND       PRES   REMARKS
ALBUQUERQUE    CLEAR     57  14  18 W7        30.11R
6HR MIN TEMP:  51; 6HR MAX TEMP:  68;

EL PASO        PTCLDY    66  21  18 W6        30.06R
6HR MIN TEMP:  66; 6HR MAX TEMP:  79;

$$


........................KEY........................
SKY/WX - SKY CONDITION/WEATHER
TMP    - TEMPERATURE IN FAHRENHEIT
DP     - DEW POINT IN FAHRENHEIT
RH     - RELATIVE HUMIDITY IN PERCENT
WIND   - DIRECTION AND SPEED IN MILES PER HOUR (MPH)
VRB    - VARIABLE WIND DIRECTION
PRES   - MEAN SEA LEVEL PRESSURE IN INCHES OF MERCURY
         F - FALLING PRESSURE   R - RISING PRESSURE
         S - STEADY PRESSURE
VSB    - VISIBILITY IN MILES
HX     - HEAT INDEX IN FAHRENHEIT
WCI    - WIND CHILL INDEX IN FAHRENHEIT
TC     - TEMPERATURE IN CELSIUS WHICH IS ALSO KNOWN AS
         TEMPERATURE IN CENTIGRADE
AFB    - AIR FORCE BASE
         LUKE AFB IS LUKE AIR FORCE BASE
         DAVIS-MONTHAN IS DAVIS-MONTHAN AIR FORCE BASE
NAS    - NAVAL AIR STATION
         EL CENTRO NAS IS EL CENTRO NAVAL AIR STATION
N/A    - NOT AVAILABLE





USA.gov is the U.S. government's official web portal to all federal, state and local government web resources and services.